Location: Blanot
(47.1713°N, 4.2340°E)
Time: 11:00:13
(UTC+00:00)

CBERS-1 - Pass Details

Date: 14 July 2020
Orbit: 770 x 776 km, 98.6° (Epoch: 05 August)

Event Time Altitude Azimuth Distance (km) Brightness Sun altitude
Rises 02:31:26 0° 10° (N) 3,269 8.5 -12.1°
Reaches altitude 10° 02:33:47 10° 7° (N) 2,337 7.5 -11.8°
Maximum altitude 02:38:49 56° 290° (WNW) 921 4.3 -11.3°
Enters shadow 02:43:03 14° 215° (SW) 2,032 5.5 -10.8°
